GFSGL_250_spd_000.txt.gz
Wind_Speed
97 101 108 114 120 125 130 132 130 133 136 133 125 119 114 110 109 106 105 103 99 94 90 85 79 76 73 71 69 68 66 65 64 70 73 77 82 86 90 83 77 81 90
103 110 118 124 128 131 133 134 134 133 129 125 120 118 116 113 110 105 102 97 90 85 81 78 73 70 67 65 62 61 60 59 58 62 68 72 75 79 83 82 78 81 85
112 117 126 127 133 137 138 133 126 122 119 117 117 114 112 107 102 96 91 84 79 77 75 73 70 67 62 59 57 56 55 54 54 56 63 65 70 74 74 75 75 78 83
118 121 133 134 137 138 129 120 118 117 116 115 112 108 103 96 88 86 83 78 74 71 67 65 64 63 60 55 53 52 52 52 50 50 55 59 63 66 67 70 71 73 80
128 130 133 132 127 122 119 116 115 114 113 109 103 96 89 83 79 79 78 73 68 65 62 59 57 58 57 53 49 49 49 47 49 50 52 55 56 57 59 62 64 68 73
132 133 130 126 113 109 107 106 105 104 99 94 89 83 79 74 73 72 70 64 61 60 58 54 51 50 49 49 46 46 46 44 45 48 50 51 53 52 51 54 57 61 64
132 128 124 116 115 110 106 99 93 89 85 81 77 75 74 69 65 63 62 60 58 53 51 49 47 46 45 44 45 43 43 43 43 44 46 47 48 49 47 49 53 55 57
128 125 115 109 106 103 100 93 87 82 78 76 72 70 67 65 60 58 58 56 52 46 43 43 45 45 40 39 41 38 38 39 40 41 42 42 44 44 47 47 48 49 53
121 116 111 104 100 94 90 85 81 77 74 72 67 62 61 61 57 53 50 49 46 45 43 42 43 43 37 35 36 32 32 33 35 37 37 36 38 42 44 48 49 48 51
112 107 102 100 95 89 83 79 76 73 68 65 62 58 56 53 51 49 49 48 45 41 39 39 38 36 35 34 33 30 28 31 32 32 33 33 35 37 39 42 44 45 46
103 100 97 91 86 81 77 74 70 66 63 60 58 55 52 49 49 49 46 42 40 38 36 34 32 30 30 31 31 28 28 27 28 29 30 30 31 32 34 37 39 40 44
99 94 89 85 80 75 72 69 65 62 60 58 54 52 51 50 48 46 43 40 36 34 31 28 26 25 24 25 26 26 26 25 26 27 28 27 28 29 30 33 34 36 40
93 88 82 77 74 70 68 64 63 59 56 54 52 51 50 47 45 44 40 37 34 31 28 25 23 22 21 21 22 23 24 24 24 26 26 27 27 29 30 32 33 35 38
86 80 76 72 70 66 64 62 59 56 53 51 51 50 47 45 44 40 37 35 31 28 25 22 21 20 19 19 20 21 21 22 23 25 26 26 28 29 30 30 32 33 35
81 76 73 70 67 64 61 60 57 53 50 49 47 45 46 44 41 38 35 32 29 25 22 20 19 18 17 17 18 19 20 22 23 24 24 26 27 27 27 28 29 31 32
77 74 70 68 65 62 60 56 54 52 50 46 44 43 42 41 39 36 33 30 27 24 21 19 19 18 17 17 17 18 19 21 21 22 22 23 24 26 27 27 28 29 30
74 71 67 65 62 59 57 54 51 49 50 48 45 42 42 40 37 34 30 27 25 22 20 18 18 18 18 17 17 18 19 20 21 21 21 22 24 25 26 27 27 27 28
71 68 65 61 59 56 53 50 48 47 46 44 45 43 40 37 34 31 28 25 23 21 20 19 18 18 18 18 18 19 20 20 21 21 21 22 23 24 25 26 25 26 26
68 65 62 59 55 53 50 49 48 46 44 43 41 40 38 35 32 29 27 24 22 21 20 20 19 20 20 20 20 21 22 22 22 23 23 24 24 24 24 25 25 25 26
66 62 59 55 51 50 49 48 46 44 44 43 40 38 35 33 31 29 27 25 23 22 21 21 21 21 21 22 22 23 24 24 24 25 25 25 26 26 25 25 26 25 25
62 59 54 52 51 50 47 45 46 45 43 42 40 36 35 33 30 29 28 26 25 23 23 23 22 23 23 23 24 24 25 25 25 26 26 27 27 26 26 26 26 26 26
59 55 53 52 50 47 46 45 45 44 42 41 39 38 33 31 30 29 28 27 25 25 24 24 24 24 25 25 26 26 26 26 27 27 28 28 28 28 27 27 26 26 26
55 54 53 51 49 47 46 44 43 42 42 39 38 37 34 33 31 30 29 27 26 25 25 25 26 26 26 26 27 27 28 27 27 27 28 28 28 28 27 27 27 27 27
55 54 52 49 48 47 46 44 42 40 40 40 38 37 34 33 32 30 30 28 27 26 25 25 25 25 27 27 27 27 28 28 28 28 28 28 28 28 27 27 28 28 28
54 52 50 49 48 47 46 43 40 39 40 40 38 37 34 33 32 31 29 28 27 25 25 25 25 24 25 27 27 28 28 27 28 28 28 29 29 28 28 29 29 29 29
53 51 50 49 48 47 44 42 41 41 40 40 39 37 34 33 32 31 30 27 27 26 25 25 25 25 25 25 26 27 27 27 27 27 27 28 28 28 28 28 28 29 29

GFSGL_250_spd_003.txt.gz
Wind_Speed
91 96 102 110 114 119 124 130 132 139 139 130 128 123 117 112 109 106 103 98 93 88 84 80 78 74 71 69 67 65 62 58 56 67 66 70 74 76 81 88 89 93 96
97 104 111 116 122 127 134 138 138 137 129 126 123 116 112 107 104 98 94 90 85 79 76 73 70 69 68 65 62 60 59 59 55 61 64 65 67 71 74 80 85 89 93
103 109 116 125 131 133 134 128 125 121 118 118 115 111 108 102 97 91 86 83 77 73 71 70 66 63 63 62 58 55 53 54 54 55 60 62 63 66 69 72 77 81 84
112 117 124 131 134 132 130 122 117 114 108 106 102 97 92 86 82 79 78 76 72 69 67 64 62 60 57 56 54 54 51 51 52 53 56 56 59 61 64 65 68 73 75
122 129 130 132 132 130 124 117 113 110 103 94 88 83 78 76 73 73 73 69 66 64 62 61 60 57 54 51 51 51 46 45 48 49 52 54 54 56 57 57 60 64 69
127 132 134 132 135 127 121 116 107 99 93 86 80 74 73 72 69 68 67 64 63 61 59 58 55 52 49 45 44 45 42 40 41 42 45 47 49 50 51 51 52 54 58
128 134 133 131 126 122 114 107 99 92 85 80 75 72 71 68 64 63 62 59 57 54 51 50 49 46 44 40 39 38 36 35 37 37 38 40 40 42 43 48 48 50 54
132 131 133 125 117 111 104 97 91 84 80 77 73 69 65 63 61 58 56 55 53 50 48 47 46 42 38 37 39 35 32 34 36 35 36 36 39 38 40 42 44 48 52
131 131 130 120 109 99 92 88 82 78 76 74 68 64 62 61 58 55 52 51 48 44 42 40 40 38 36 36 35 32 32 32 32 32 32 34 36 36 39 41 42 46 50
129 128 118 107 98 90 85 78 76 74 71 69 64 60 58 56 54 51 49 46 43 41 39 37 35 35 33 32 30 29 30 29 30 30 29 30 32 34 37 39 41 43 45
128 117 106 98 90 84 79 76 73 71 67 64 61 58 56 54 52 49 46 45 43 38 36 33 31 29 28 26 25 26 27 27 28 28 27 27 28 29 32 34 36 39 42
114 105 98 92 86 79 75 72 68 66 63 61 59 56 53 51 48 46 45 43 39 35 33 31 28 25 23 22 21 21 22 24 26 26 26 26 26 27 29 30 31 34 36
106 97 92 87 80 75 72 68 65 63 60 57 56 54 52 51 48 45 43 39 36 34 31 28 25 22 20 20 19 19 20 22 23 24 24 25 25 25 26 27 29 30 31
99 92 87 81 76 71 68 65 63 60 56 53 52 51 50 50 47 42 39 37 35 32 28 25 23 20 18 18 18 18 18 19 19 21 23 24 23 24 25 25 26 28 30
93 88 82 76 72 68 65 62 60 57 53 51 50 50 48 47 44 42 39 35 32 29 26 23 21 19 17 16 16 16 17 18 18 19 21 22 23 23 24 26 27 29 31
89 82 77 72 68 65 63 60 56 54 52 50 49 44 41 43 42 39 36 33 31 27 24 22 19 17 16 16 16 16 17 17 18 19 20 22 23 24 26 26 26 27 28
83 76 73 68 65 63 60 56 55 54 52 49 46 44 43 40 39 37 34 31 29 26 23 21 18 17 15 15 16 17 17 18 18 19 21 23 24 25 25 24 25 27 27
79 73 69 65 63 60 57 55 54 53 50 48 47 45 42 39 37 36 33 31 28 26 24 21 19 17 16 16 16 18 18 19 20 21 22 23 24 25 25 26 25 26 27
74 69 65 63 60 57 56 53 51 49 48 47 44 44 40 38 37 35 32 30 28 27 25 23 21 19 18 18 18 19 20 21 22 23 23 24 25 26 27 27 27 27 28
69 66 63 61 57 56 54 51 49 48 47 46 41 39 39 37 35 32 32 30 28 28 26 25 23 21 21 20 20 21 22 24 25 25 26 26 27 28 28 29 29 28 29
66 64 61 58 56 54 52 50 48 46 45 43 41 37 37 36 35 32 31 30 29 28 27 25 24 24 23 23 23 23 24 25 27 27 27 28 28 28 29 29 29 29 30
63 60 59 57 55 53 51 49 47 45 42 39 39 38 37 36 35 33 32 31 31 29 27 26 25 25 25 25 26 26 26 27 28 28 29 29 29 29 30 30 30 31 30
60 58 58 56 54 52 51 49 46 42 39 37 37 38 38 38 36 34 33 32 31 29 27 26 26 25 25 25 27 28 28 28 29 30 30 31 31 30 31 31 30 30 30
59 57 56 54 52 51 49 47 43 40 38 37 36 38 38 37 35 34 33 32 31 28 27 26 25 25 24 24 25 26 28 30 30 30 30 31 31 31 31 30 30 29 29
56 56 55 53 51 49 47 44 42 41 40 39 39 38 37 37 36 35 33 32 31 29 27 27 26 25 24 24 24 25 26 28 30 31 30 30 31 31 32 31 30 31 32
54 54 52 50 49 48 45 43 42 41 41 40 40 38 36 36 35 35 34 33 32 30 28 27 26 26 25 24 24 24 25 26 28 29 31 30 30 30 31 31 31 31 32

GFSGL_250_spd_006.txt.gz
Wind_Speed
83 89 94 102 110 114 118 123 129 131 132 126 123 123 119 117 110 102 97 92 90 87 82 76 73 70 69 67 65 64 63 61 56 69 74 76 80 82 85 87 89 94 100
88 96 102 108 115 120 124 127 131 128 127 125 122 117 112 105 99 94 89 86 81 77 75 72 70 67 64 63 62 62 60 58 55 61 68 70 71 74 76 78 81 85 93
97 103 108 113 118 123 128 129 128 127 125 122 116 107 101 95 92 87 81 77 74 72 69 67 64 62 60 57 54 56 56 54 51 54 63 63 65 66 71 72 74 78 86
104 110 114 118 124 129 129 126 125 124 122 115 108 100 92 85 81 77 74 73 70 66 64 62 60 58 56 55 53 52 51 51 50 48 56 57 56 59 62 65 69 72 78
109 114 117 122 126 126 125 123 123 120 115 106 99 91 85 80 76 74 71 68 65 63 62 58 55 53 49 48 49 48 45 45 47 47 49 54 55 55 54 57 61 66 71
116 120 123 125 124 125 124 123 118 110 103 95 88 83 79 75 72 70 66 63 60 58 56 54 51 47 46 44 43 44 43 43 43 42 44 50 51 48 48 50 55 58 63
121 124 128 128 126 123 121 115 106 99 92 86 80 77 73 70 68 65 61 60 57 53 51 50 49 45 43 41 39 41 42 41 38 40 44 46 44 42 42 48 51 53 57
123 127 128 126 126 122 114 104 96 90 83 80 75 72 68 66 63 60 58 55 52 49 49 48 46 44 42 40 37 35 35 36 35 40 41 37 37 38 42 44 45 48 52
127 126 128 126 123 114 104 96 88 81 77 74 70 67 63 61 58 54 52 49 46 44 43 42 42 39 38 34 33 32 32 32 33 34 32 33 34 37 39 41 42 45 49
126 125 124 123 114 106 96 88 81 77 74 70 66 63 60 56 55 52 49 48 46 43 41 38 36 34 32 30 29 28 27 27 29 29 30 31 30 32 35 36 38 40 42
125 123 122 115 106 97 89 82 78 74 70 66 63 59 56 53 52 51 50 48 45 41 38 34 32 30 29 26 25 23 22 22 23 25 26 27 27 28 29 30 33 35 39
125 123 119 109 99 91 85 79 74 69 66 63 58 55 54 52 51 49 46 43 41 39 36 33 30 27 25 22 21 20 19 19 20 22 24 25 26 26 27 28 29 31 35
126 119 111 101 93 86 81 76 71 66 64 59 56 55 55 53 50 45 43 42 40 36 34 30 27 25 22 20 19 17 16 16 18 19 22 23 24 24 25 26 28 30 33
119 111 102 94 88 81 76 71 67 64 60 58 56 54 52 50 49 46 42 37 36 33 30 28 25 23 21 19 18 15 14 14 15 17 18 21 22 23 24 25 26 29 31
113 101 95 88 82 77 71 67 64 61 59 57 54 51 49 48 47 45 41 37 33 31 28 26 24 22 20 19 18 16 14 13 14 16 18 19 20 21 22 24 25 27 30
101 94 88 82 76 72 67 64 60 59 57 54 52 49 48 46 43 41 38 35 33 30 26 25 23 21 20 18 18 16 14 13 14 15 16 17 19 20 21 23 24 26 27
92 87 82 77 72 68 64 61 59 56 54 51 50 48 45 43 39 37 36 33 30 28 25 23 22 21 20 18 18 17 16 15 15 16 17 19 19 19 20 21 23 25 26
86 82 76 72 68 65 62 59 57 55 52 49 48 47 43 41 37 35 35 32 29 26 25 23 22 22 21 20 19 19 19 18 17 19 19 19 20 21 22 23 24 24 26
81 77 72 68 65 62 58 57 55 52 51 49 47 45 42 39 37 35 33 31 28 26 25 24 23 22 22 22 22 21 21 20 20 21 22 22 22 23 24 24 24 24 26
77 72 68 65 62 59 56 55 52 50 48 45 43 41 39 38 37 35 34 32 30 28 26 26 24 23 22 22 24 24 24 23 22 23 24 24 25 26 27 27 26 27 27
72 68 66 63 59 56 54 53 50 48 44 42 40 38 37 36 35 34 32 31 30 29 28 27 25 24 23 23 24 26 26 26 26 26 26 26 27 28 28 28 28 28 28
67 65 62 59 57 54 53 51 49 45 42 40 39 37 36 36 35 34 32 31 30 30 29 27 25 24 24 24 24 25 27 28 28 29 29 29 29 29 30 30 30 30 30
65 62 59 56 54 52 51 50 47 44 42 41 39 37 36 36 36 35 33 32 30 29 27 26 25 24 24 24 24 25 26 27 29 31 31 31 32 32 31 31 32 32 32
63 59 56 54 52 50 49 48 45 43 41 40 38 38 37 37 36 36 35 34 32 30 28 25 24 24 24 23 24 25 26 27 27 29 31 33 33 33 33 33 33 33 33
58 54 53 51 50 48 47 47 44 41 40 40 39 39 38 37 36 35 34 34 33 31 28 26 24 23 24 24 23 24 25 26 27 28 28 30 33 33 33 33 33 34 34
53 52 50 49 48 47 47 45 43 41 40 40 40 39 39 38 37 35 34 33 32 31 29 26 24 22 23 23 23 23 24 25 26 27 28 28 30 31 33 33 33 33 33

GFSGL_250_spd_009.txt.gz
Wind_Speed
70 75 80 86 93 100 106 112 118 120 124 127 125 122 120 117 117 110 103 96 90 86 80 76 73 70 68 67 65 65 64 61 58 60 68 75 77 77 79 83 89 96 101
75 81 88 95 101 108 114 121 123 127 126 123 120 120 117 113 107 102 96 90 83 78 75 73 71 68 65 62 60 60 59 59 54 55 62 71 71 69 72 74 78 84 91
83 91 97 103 108 113 121 127 125 124 122 119 119 114 110 104 98 93 87 81 78 74 70 67 65 65 63 61 57 54 53 55 54 53 58 63 66 66 66 68 71 73 78
93 99 104 108 113 118 127 128 124 121 119 117 111 106 101 96 91 85 81 77 73 70 67 64 62 61 59 56 54 53 51 51 50 50 56 57 59 61 60 60 64 65 72
100 104 108 114 120 126 132 129 126 121 117 112 106 98 93 88 82 78 75 72 69 66 63 61 59 57 53 51 52 51 50 49 46 44 49 53 56 57 54 53 57 61 66
106 110 116 122 127 134 132 127 125 118 112 103 96 90 84 79 75 72 70 67 64 62 59 57 56 52 49 47 44 43 45 47 44 42 43 47 48 52 52 50 54 57 64
111 116 122 126 133 134 128 126 121 114 103 94 90 83 78 73 70 69 66 63 60 56 54 54 53 49 47 45 41 38 39 41 41 39 39 44 44 43 45 47 50 55 59
116 120 127 131 134 129 125 121 115 105 95 88 82 77 72 68 66 64 61 57 54 53 52 52 52 48 45 42 39 37 36 36 36 34 34 38 40 37 40 41 45 52 55
121 127 133 132 127 126 124 117 105 96 89 83 77 72 68 66 62 59 58 56 53 50 47 45 44 41 38 36 35 34 33 32 32 30 31 34 35 37 38 40 42 46 48
127 133 132 128 127 125 118 108 98 90 83 77 72 68 65 61 59 58 56 54 51 47 43 42 40 38 35 33 31 30 28 27 26 25 26 29 30 33 34 34 37 39 39
134 133 127 126 127 120 110 100 93 85 78 73 68 64 61 59 57 55 52 49 48 46 44 41 37 34 31 28 27 24 23 22 22 21 22 25 27 29 29 30 32 34 36
135 129 127 127 122 113 103 96 87 79 73 69 65 61 59 57 55 51 49 48 47 45 41 38 34 31 27 25 23 20 18 18 18 18 19 21 24 25 27 27 28 31 37
131 127 127 122 116 105 97 88 81 75 70 66 62 59 56 54 52 48 46 43 43 42 39 35 32 29 25 23 21 18 16 16 16 16 17 18 20 23 25 25 27 31 32
127 127 123 118 108 99 90 81 75 69 66 62 59 57 54 52 50 47 44 41 38 37 36 33 29 26 23 21 19 17 16 16 15 15 16 17 18 20 22 23 25 27 29
126 122 118 109 100 91 82 75 70 66 63 60 58 56 53 51 48 45 42 39 37 35 34 31 27 25 22 20 18 17 15 15 15 15 14 15 16 17 19 22 23 24 26
119 116 109 99 91 83 76 70 66 63 60 57 57 54 52 48 45 42 39 37 36 35 33 29 26 24 22 20 18 17 15 15 15 14 13 14 15 16 18 19 20 22 23
113 107 98 90 84 76 70 66 64 59 58 56 54 52 49 45 42 38 36 36 35 32 31 28 26 23 22 20 18 17 16 15 15 15 15 15 16 16 17 19 21 22 24
103 96 89 83 76 71 67 65 61 57 54 52 52 50 46 42 39 37 35 34 33 31 28 27 25 23 22 20 19 18 17 18 17 17 17 16 17 18 20 21 23 24 25
94 88 82 77 72 67 65 62 58 55 52 50 48 46 43 42 40 38 35 33 31 29 27 26 26 24 23 21 20 19 19 19 20 19 19 20 21 21 22 23 23 24 25
86 81 77 72 69 66 62 59 55 51 50 48 46 43 41 40 39 38 36 32 30 29 28 26 26 25 24 23 21 21 20 21 22 22 22 22 23 24 25 25 25 25 25
80 76 71 70 67 64 59 55 51 48 47 46 44 42 40 38 38 37 36 33 31 29 29 27 26 26 25 24 23 22 22 22 23 24 25 25 25 26 26 27 27 28 28
76 71 69 67 64 60 55 50 48 45 45 45 42 40 39 39 38 36 35 34 33 31 28 28 27 26 25 25 24 23 23 24 24 25 26 27 28 28 28 28 29 29 31
71 68 67 64 61 56 51 48 45 44 43 44 41 39 38 38 38 36 33 33 33 32 31 27 25 25 25 24 25 24 23 24 25 25 26 27 29 30 31 31 31 31 31
67 65 63 60 56 53 48 46 44 43 43 43 41 39 38 37 37 36 34 32 32 31 31 30 25 23 23 24 24 25 24 24 25 26 26 27 28 30 31 32 32 33 34
64 62 59 57 54 50 47 45 45 43 43 42 40 39 38 37 37 37 36 34 32 31 30 30 27 23 22 23 23 24 24 25 25 26 26 27 28 29 30 32 34 34 33
60 58 56 54 53 50 47 45 45 44 43 41 39 39 38 37 38 38 38 36 33 31 30 29 27 24 22 22 22 23 24 25 25 25 26 26 28 29 30 30 31 34 35

GFSGL_250_spd_012.txt.gz
Wind_Speed
62 64 69 76 83 89 94 100 107 111 116 118 118 118 116 116 115 112 105 100 95 91 87 83 80 76 74 70 66 63 61 58 54 63 67 71 69 68 67 69 76 81 84
65 71 77 82 88 95 100 108 113 120 123 124 120 117 117 115 110 101 97 93 90 86 82 79 75 71 68 65 63 60 56 54 49 53 63 65 66 64 64 64 68 73 76
72 78 83 89 96 102 107 113 123 124 126 124 121 119 115 108 99 94 90 88 85 80 76 73 70 67 65 62 59 56 53 53 50 48 59 60 62 61 61 60 62 66 70
78 84 88 96 103 108 114 123 126 128 124 121 120 116 108 99 92 89 85 82 78 74 70 69 66 62 59 57 56 54 50 49 46 45 50 55 56 56 55 57 55 59 65
85 91 97 105 110 115 122 130 130 128 124 122 116 110 100 93 88 84 80 77 73 70 66 63 60 58 55 53 51 52 49 47 45 44 45 48 50 53 48 50 54 53 60
93 97 105 110 116 122 130 132 127 123 122 116 109 99 93 88 83 78 75 73 69 64 62 62 60 58 55 52 49 47 46 46 43 41 42 44 45 49 47 45 50 51 54
99 104 111 115 121 128 133 129 122 121 117 112 101 94 89 84 79 74 72 69 65 61 60 59 57 54 50 48 45 42 41 41 40 39 39 41 43 41 43 43 45 48 51
105 111 115 120 126 131 128 124 123 118 112 103 95 89 84 79 74 71 69 66 62 56 54 53 50 49 46 45 43 39 36 36 34 33 33 35 38 39 38 38 40 45 48
112 116 124 126 128 127 124 123 119 113 106 98 91 85 80 74 70 68 66 64 60 54 52 49 47 45 42 41 39 36 35 34 33 32 31 31 32 34 34 35 39 42 42
117 124 127 127 122 122 123 120 114 108 100 93 86 79 74 70 67 65 63 61 58 54 51 47 44 41 39 37 35 33 31 30 30 29 28 28 28 29 30 31 34 34 34
123 127 124 120 119 122 120 116 110 102 95 87 79 73 70 67 64 62 60 58 56 53 50 46 40 38 34 33 31 29 27 26 25 24 23 23 24 25 27 29 30 31 34
125 124 120 119 120 120 116 112 105 98 90 81 74 71 67 65 63 61 58 55 53 50 47 42 38 35 32 30 28 26 24 22 21 20 19 20 21 21 23 25 26 30 34
122 121 118 117 117 116 113 107 99 93 83 76 71 68 64 62 60 58 55 52 48 44 42 39 37 33 30 27 26 23 21 19 19 18 18 18 18 19 22 24 27 29 29
119 116 115 115 114 112 108 99 92 85 77 72 69 65 62 60 57 55 52 47 43 40 39 38 35 31 28 26 24 21 19 17 17 17 17 17 17 18 21 22 24 25 26
115 115 114 112 111 109 102 94 86 79 73 69 66 62 59 57 54 51 47 44 41 39 37 38 35 30 27 25 22 19 18 16 16 16 15 16 17 18 19 20 22 24 24
114 114 112 110 107 102 96 89 80 74 71 66 61 58 56 53 51 48 45 42 41 40 38 36 35 30 26 25 23 20 17 16 15 15 15 15 16 17 18 20 22 23 23
113 111 109 105 101 95 89 83 75 70 66 63 59 56 53 51 48 45 43 40 39 38 38 35 32 31 27 25 23 20 18 17 15 15 15 15 16 16 18 20 22 23 24
110 107 104 100 93 88 83 75 72 67 63 59 57 53 51 49 46 43 40 38 38 37 36 34 31 30 27 24 23 22 19 18 17 16 16 17 17 17 19 20 21 22 24
105 101 98 92 86 82 76 71 68 64 60 57 53 50 48 47 45 42 39 38 36 35 33 32 31 29 27 26 23 22 21 19 18 18 18 18 18 19 20 21 22 22 24
100 97 92 85 81 76 72 68 65 61 57 53 49 47 46 45 44 41 38 37 35 34 33 32 31 30 28 27 25 22 21 20 19 20 20 21 20 20 22 23 23 24 25
94 90 85 79 75 71 69 65 61 57 54 51 48 46 46 44 42 40 39 36 35 34 33 32 31 30 29 28 26 24 22 22 21 21 21 22 23 23 23 25 27 28 28
89 82 79 74 69 67 65 61 58 55 52 50 48 45 45 44 41 39 38 36 35 33 33 32 32 31 29 28 27 26 24 22 22 22 22 24 24 26 27 27 27 28 30
82 76 74 70 65 64 61 57 55 53 52 50 48 46 45 43 40 38 38 37 36 35 33 31 32 31 28 26 28 28 25 24 22 23 23 24 25 26 28 30 30 30 30
76 72 70 66 63 60 57 55 53 52 51 49 48 47 44 41 40 38 37 37 37 36 34 31 30 31 28 25 25 26 27 26 24 23 24 25 25 26 28 29 31 33 33
72 68 65 64 60 57 55 53 52 51 50 50 48 47 44 41 39 38 37 37 36 36 34 31 29 29 28 26 24 25 26 27 26 25 25 26 26 26 27 28 30 31 33
69 65 62 61 58 55 53 52 51 50 49 49 48 46 43 40 39 39 37 36 36 35 32 31 29 28 27 27 25 24 24 25 27 27 26 25 26 27 27 28 29 30 31

GFSGL_250_spd_015.txt.gz
Wind_Speed
62 62 64 67 70 75 81 86 91 96 101 108 112 114 115 115 115 111 106 99 93 89 86 83 80 76 74 71 67 65 62 56 51 68 65 69 66 60 61 66 65 67 71
62 64 67 71 77 82 85 92 96 103 109 112 114 115 112 116 113 107 99 93 88 84 81 79 75 72 69 67 64 60 56 52 48 57 60 64 64 61 55 59 63 62 67
62 67 72 77 83 88 94 99 105 109 114 117 116 116 118 116 108 99 92 87 83 80 77 73 71 69 66 64 61 57 54 51 45 47 55 57 56 57 57 54 57 58 62
70 72 78 85 90 95 100 107 111 116 117 119 118 117 116 110 100 93 87 82 80 77 73 70 68 66 64 63 61 57 54 51 47 44 50 51 52 51 53 53 50 52 56
78 81 87 92 97 103 108 113 118 118 119 119 116 116 110 102 94 88 83 79 76 73 70 68 65 63 61 58 55 53 51 49 45 42 45 47 48 48 48 49 47 46 53
84 88 94 99 105 110 114 118 119 119 117 116 115 110 104 94 88 82 79 76 73 71 68 66 63 60 57 53 49 47 46 46 44 40 38 39 42 45 43 41 42 44 51
90 96 102 106 112 115 118 119 116 116 114 114 109 103 95 90 83 78 75 73 71 67 64 62 60 56 54 52 49 46 44 43 41 38 37 35 37 39 40 37 37 40 45
96 102 108 113 116 118 117 118 116 113 113 109 104 97 91 86 80 75 72 71 68 64 61 58 56 53 50 48 46 43 41 38 37 35 35 32 33 34 35 35 35 38 42
102 108 114 117 118 117 117 113 111 112 108 107 101 94 87 81 75 73 71 69 65 62 59 55 51 48 45 43 41 39 36 35 34 32 31 30 29 30 32 32 34 36 37
108 114 117 118 116 115 112 110 111 109 106 102 96 90 83 76 73 71 69 66 63 61 56 50 46 42 40 38 37 36 34 33 32 30 28 28 28 27 27 29 30 31 33
113 116 118 116 112 112 111 110 109 106 104 98 92 85 78 74 71 68 65 62 60 57 53 48 44 40 37 36 35 33 31 30 29 28 26 25 25 24 24 25 27 30 33
116 117 116 109 109 110 110 109 107 105 101 95 88 81 74 72 69 65 61 58 56 53 50 46 42 38 36 34 32 30 29 28 26 26 24 22 22 21 20 23 25 29 32
118 113 105 106 109 110 109 108 104 102 97 91 83 76 72 69 65 61 58 55 53 50 47 44 40 37 35 33 30 28 27 26 24 23 21 20 20 19 19 20 22 24 26
107 105 105 108 110 109 107 105 102 98 91 84 77 72 68 65 61 58 56 53 50 47 44 41 39 37 33 31 30 27 25 24 22 21 20 18 19 18 17 18 20 21 24
107 109 109 110 109 107 105 101 99 93 85 79 72 68 64 61 58 55 54 51 48 44 42 40 38 37 34 31 28 26 24 23 21 20 19 17 18 17 17 18 20 23 24
109 108 109 107 106 105 101 99 93 86 79 73 68 64 61 58 55 53 51 49 46 42 41 40 37 35 33 29 28 26 24 22 21 20 19 17 17 18 18 18 19 22 24
108 109 106 105 105 101 99 93 86 78 74 68 65 61 57 54 52 50 49 47 43 40 39 39 36 34 32 30 27 26 23 22 21 20 19 18 17 18 18 18 19 21 23
110 106 104 103 100 99 94 85 78 74 69 63 61 58 54 52 51 49 48 46 42 39 38 37 36 34 32 29 28 25 23 22 21 20 20 19 18 18 18 18 19 20 21
104 103 101 99 97 93 85 77 72 68 64 61 57 55 52 50 49 48 47 45 41 38 37 35 34 33 31 29 27 25 23 22 21 21 20 20 21 20 19 20 20 21 22
101 99 97 95 90 84 77 72 68 64 60 57 54 52 50 48 48 47 46 44 40 37 35 35 34 32 31 29 27 26 23 22 21 20 21 21 22 23 21 21 22 23 23
97 94 93 87 82 77 72 69 64 60 57 55 52 50 48 47 47 47 45 42 39 37 35 35 34 33 32 31 28 25 24 21 21 20 21 22 23 23 25 25 24 25 26
93 87 84 79 75 72 68 66 61 58 55 53 50 47 46 45 46 44 43 41 39 37 36 35 34 32 31 32 29 26 24 24 21 21 21 22 23 24 25 27 29 28 28
84 81 78 74 70 68 65 62 58 56 53 51 48 45 44 44 44 44 42 40 38 37 36 34 33 32 30 30 30 27 24 23 22 21 21 22 23 24 26 27 29 31 32
77 74 72 69 67 64 61 59 55 53 52 48 46 44 43 43 43 42 41 39 37 36 35 34 33 32 30 28 29 27 25 24 23 23 22 22 24 25 26 27 28 30 32
72 69 68 66 64 60 57 55 54 51 49 47 46 44 42 42 41 40 39 38 37 35 34 33 33 32 30 29 29 29 26 25 24 23 23 23 23 25 26 28 29 30 31
68 66 65 63 60 56 54 52 51 50 48 46 45 43 42 42 40 39 38 38 37 35 34 33 33 31 30 30 29 28 27 25 24 24 24 24 24 25 26 27 29 30 31

GFSGL_250_spd_018.txt.gz
Wind_Speed
65 68 70 69 67 68 72 76 81 88 93 97 102 105 108 108 109 109 108 109 106 102 96 91 88 84 79 75 71 68 65 61 55 72 63 64 63 58 56 58 62 68 69
69 70 71 71 71 73 78 82 89 95 101 105 107 109 107 108 109 108 108 105 100 93 88 84 80 76 72 70 67 64 61 58 53 62 62 60 61 58 55 54 56 63 65
74 74 73 73 75 80 84 90 96 102 106 109 112 109 107 109 110 109 104 97 90 86 82 78 74 70 69 67 63 60 58 56 53 54 58 55 57 56 55 56 52 55 60
78 78 78 78 82 86 91 97 102 108 111 114 112 108 109 109 108 103 95 88 84 80 76 72 69 67 65 64 61 59 57 54 51 49 50 49 49 49 53 54 54 51 52
84 83 82 84 88 92 98 104 109 113 115 112 108 109 109 108 104 95 87 83 79 76 72 69 67 64 63 61 58 57 55 53 49 47 45 42 43 44 46 48 50 49 47
85 84 86 88 93 98 104 110 113 115 111 108 110 111 110 104 95 89 83 79 76 73 70 67 63 61 61 60 56 53 50 48 47 44 42 40 40 39 42 43 44 45 45
86 88 90 95 101 106 111 115 116 109 107 109 109 109 104 96 91 84 80 77 73 71 67 63 60 58 57 56 53 50 46 44 43 41 40 36 37 36 37 37 38 40 42
90 93 97 102 107 112 116 115 108 108 109 109 110 105 97 92 85 81 78 74 71 68 64 60 56 54 53 51 48 45 42 40 39 37 34 34 32 32 33 34 34 35 38
96 99 103 109 112 115 111 107 107 108 109 109 105 100 94 88 84 79 75 72 68 64 60 57 53 52 49 46 44 42 40 39 37 35 32 30 28 27 29 30 31 32 34
102 105 109 114 114 110 108 107 108 110 110 107 99 96 92 85 82 77 72 69 64 60 56 53 52 48 44 42 41 39 37 36 34 31 30 27 25 24 25 26 27 29 33
108 111 112 113 109 108 109 111 110 108 105 99 98 94 89 84 79 73 69 65 61 57 53 50 49 45 41 38 37 37 35 33 31 29 27 25 23 22 22 21 23 24 28
112 112 109 105 107 109 110 107 105 103 102 100 96 92 86 80 74 69 64 60 57 53 50 49 48 43 40 38 34 34 33 31 29 27 25 24 21 21 19 19 19 20 22
108 104 104 107 107 107 106 107 106 105 103 97 93 88 82 75 69 65 60 56 52 49 48 48 46 43 39 37 35 32 30 29 27 26 23 22 21 20 17 16 17 18 20
106 107 104 103 105 108 106 103 104 104 100 94 88 83 76 71 65 60 56 52 50 48 47 46 43 41 39 34 31 31 29 29 27 24 22 21 20 19 17 15 16 18 19
106 109 108 109 109 107 103 104 103 99 94 88 83 78 71 66 62 56 52 50 47 46 45 44 41 39 38 36 33 31 30 28 26 24 22 20 20 19 17 16 16 17 18
113 113 113 111 106 103 104 103 97 92 88 82 79 73 67 62 58 53 50 48 46 44 43 42 39 36 35 34 33 32 29 28 26 25 22 19 19 19 18 16 15 16 17
118 120 113 107 106 105 98 93 91 87 82 76 73 69 64 60 55 50 48 46 44 44 43 41 37 34 33 33 32 31 29 27 26 25 23 19 19 19 18 17 15 16 18
117 111 106 106 102 97 91 89 85 81 75 70 67 65 61 57 52 49 46 45 43 43 42 39 36 33 32 31 31 30 28 27 26 24 23 20 18 19 19 17 16 17 18
108 108 105 100 96 92 88 84 80 75 69 66 63 61 59 54 50 47 45 43 42 41 40 37 35 33 32 31 30 29 28 27 25 25 23 21 18 19 20 19 18 18 18
106 100 97 94 91 87 81 77 73 68 65 63 60 58 55 52 49 46 43 42 41 39 38 36 34 33 32 32 30 29 27 26 25 24 23 21 20 18 20 20 20 20 20
98 96 93 88 85 80 75 72 68 65 61 60 58 56 53 49 47 45 41 39 39 38 37 34 34 34 32 31 31 29 26 24 25 23 22 21 21 20 20 21 22 23 23
92 88 85 82 79 74 71 68 65 63 60 57 54 52 50 47 45 44 41 39 38 37 36 34 33 33 32 30 30 28 27 23 23 23 22 21 21 21 21 21 22 24 26
83 80 77 75 72 69 67 64 62 60 58 55 52 48 46 46 45 42 41 39 38 36 34 33 32 31 31 30 29 27 26 25 23 23 23 21 20 21 22 22 23 25 26
77 73 71 70 67 65 63 61 60 57 55 52 50 47 45 44 44 41 40 38 37 35 34 32 32 31 30 30 29 28 26 26 25 23 24 23 21 21 22 23 24 25 27
72 69 66 65 64 62 60 58 56 53 51 48 47 47 45 43 42 40 39 37 36 35 34 31 30 30 29 30 29 29 27 26 26 24 23 24 24 22 22 22 24 26 28
67 65 65 63 61 59 56 54 52 50 48 46 45 45 44 42 40 39 38 36 36 34 33 31 30 30 29 30 29 29 29 28 26 25 24 24 24 24 23 23 24 26 28